Weather History for KMQE - January, 2014

Change the Weather History Date:

Wednesday, January 29, 2014

  Actual Average (KBOS) Record (KBOS)
Temperature  
Mean Temperature 16 °F 29 °F  
Max Temperature 23 °F 36 °F 65 °F (2002)
Min Temperature 10 °F 22 °F -6 °F (1888)
Degree Days  
Heating Degree Days 48 36  
Month to date heating degree days 1040  
Since 1 July heating degree days 3034  
Cooling Degree Days 0 0  
Month to date cooling degree days 0  
Year to date cooling degree days 0  
Moisture  
Dew Point -1 °F    
Average Humidity 50    
Maximum Humidity 88    
Minimum Humidity 27    
Precipitation  
Precipitation 0.02 in 0.11 in 1.27 in (1973)
Month to date precipitation 3.15  
Year to date precipitation 3.15  
Sea Level Pressure  
Sea Level Pressure 30.11 in    
Wind  
Wind Speed 6 mph (West)    
Max Wind Speed 16 mph    
Max Gust Speed 25 mph    
T = Trace of Precipitation, MM = Missing Value Source: NWS Daily Summary

Daily Weather History Graph

Daily Weather History Graph

Search for Another Location

Airport or City:

Trip Planner

Search our weather history database for the weather conditions in past years. The results will help you decide how hot, cold, wet, or windy it might be!

Date:

Astronomy

Jan. 29, 2014 Rise Set
Actual Time 7:00 AM EST 4:55 PM EST
Civil Twilight 6:30 AM EST 5:24 PM EST
Nautical Twilight 5:57 AM EST 5:58 PM EST
Astronomical Twilight 5:24 AM EST 6:31 PM EST
Moon 5:34 AM EST (1/29) 3:51 PM EST (1/29)
Length of Visible Light 10h 54m
Length of Day
9h 54m
Waning Crescent, 2% of the Moon is Illuminated
Jan 29
Waning Crescent
Jan 30
New
Feb 6
First Quarter
Feb 14
Full
Feb 22
Last Quarter

Hourly Weather History & Observations

Time (EST) Temp. Windchill Dew Point Humidity Pressure Visibility Wind Dir Wind Speed Gust Speed Precip Events Conditions
12:54 AM 14.0 °F 6.5 °F -2.9 °F 47% 30.21 in - West 4.6 mph - N/A   Unknown
1:54 AM 14.0 °F - -2.0 °F 49% 30.20 in - Calm Calm - N/A   Unknown
2:54 AM 14.0 °F - -2.0 °F 49% 30.19 in - Calm Calm - N/A   Unknown
3:54 AM 12.9 °F - 1.0 °F 59% 30.18 in - Calm Calm - N/A   Unknown
4:54 AM 12.0 °F 5.9 °F 6.1 °F 77% 30.14 in - NNW 3.5 mph - 0.01 in   Unknown
5:54 AM 10.9 °F - 8.1 °F 88% 30.12 in - Calm Calm - 0.01 in   Unknown
6:54 AM 10.9 °F 1.4 °F 8.1 °F 88% 30.12 in - WNW 5.8 mph - N/A   Unknown
7:54 AM 12.0 °F 4.1 °F 7.0 °F 80% 30.12 in - WNW 4.6 mph - N/A   Unknown
8:54 AM 12.0 °F 2.7 °F 7.0 °F 80% 30.12 in - West 5.8 mph - N/A   Unknown
9:54 AM 12.9 °F 0.7 °F 6.1 °F 74% 30.12 in - WNW 9.2 mph - N/A   Unknown
10:54 AM 17.1 °F 5.8 °F 3.9 °F 56% 30.09 in - WNW 9.2 mph 17.3 mph N/A   Unknown
11:54 AM 19.9 °F 10.1 °F 1.9 °F 46% 30.04 in - WNW 8.1 mph - N/A   Unknown
12:54 PM 21.0 °F 11.4 °F -2.9 °F 35% 30.01 in - WSW 8.1 mph - N/A   Unknown
1:54 PM 23.0 °F 10.6 °F -4.0 °F 31% 29.99 in - WSW 13.8 mph 21.9 mph N/A   Unknown
2:54 PM 23.0 °F 11.7 °F -7.1 °F 27% 29.99 in - WSW 11.5 mph 23.0 mph N/A   Unknown
3:54 PM 21.9 °F 10.4 °F -8.0 °F 27% 30.00 in - West 11.5 mph 25.3 mph N/A   Unknown
4:54 PM 21.0 °F 8.6 °F -8.0 °F 28% 30.01 in - WSW 12.7 mph 21.9 mph N/A   Unknown
5:54 PM 19.9 °F 7.9 °F -6.0 °F 32% 30.06 in - WSW 11.5 mph 19.6 mph N/A   Unknown
6:54 PM 19.0 °F 5.6 °F -5.1 °F 34% 30.09 in - WSW 13.8 mph 23.0 mph N/A   Unknown
7:54 PM 18.0 °F 3.6 °F -5.1 °F 36% 30.13 in - West 15.0 mph 24.2 mph N/A   Unknown
8:54 PM 17.1 °F 2.5 °F -4.0 °F 39% 30.16 in - West 15.0 mph 24.2 mph N/A   Unknown
9:54 PM 16.0 °F 3.6 °F -5.1 °F 39% 30.19 in - WNW 10.4 mph 21.9 mph N/A   Unknown
10:54 PM 15.1 °F -0.1 °F -5.1 °F 41% 30.21 in - West 15.0 mph 23.0 mph N/A   Unknown
11:54 PM 15.1 °F -0.6 °F -4.0 °F 43% 30.22 in - West 16.1 mph 23.0 mph N/A   Unknown